Location: ?????????
(38.0736°N, 23.2119°E)
Time: 11:47:33
(UTC+00:00)

Cosmos 304 Rocket - Pass Details

Date: 18 April 2024
Orbit: 675 x 681 km, 74.0° (Epoch: 18 May)

Event Time Altitude Azimuth Distance (km) Brightness Sun altitude
Rises 18:37:42 0° 349° (N) 3,038 7.7 -17.4°
Reaches altitude 10° 18:40:09 10° 358° (N) 2,118 6.7 -17.8°
Maximum altitude 18:44:36 38° 67° (ENE) 1,028 4.4 -18.6°
Enters shadow 18:45:30 35° 93° (E) 1,096 4.3 -18.7°
